RH
62 92 99 89 78 50 52 34 30 22 16 12 12 9 9 14 12 14 19 37 49 39 26 31 28 33 23 17 12 9 13 18 17 10 11 13 14 16 17 19 20 19 22 24 11
87 87 79 100 100 86 74 66 50 36 23 17 13 10 8 7 7 10 11 22 30 36 26 21 19 26 29 26 22 17 16 11 9 9 10 10 12 15 15 15 18 19 21 17 13
100 99 98 92 100 93 80 84 67 51 34 20 14 11 8 7 6 7 8 11 17 19 15 18 17 17 19 21 20 17 22 12 12 10 9 11 11 13 13 14 14 15 16 14 11
100 100 100 94 99 100 90 84 78 57 36 26 17 11 9 6 7 6 6 6 6 7 8 9 12 14 17 15 14 15 17 13 12 11 11 11 9 12 12 14 12 12 13 12 9
100 100 100 100 100 94 94 72 56 55 36 25 19 15 12 7 7 6 6 5 5 5 6 7 8 10 10 11 11 12 12 12 12 10 8 7 8 8 10 11 10 11 11 9 10
100 100 100 100 100 100 77 70 40 31 27 16 19 13 12 8 6 6 5 5 5 4 4 5 5 6 8 8 10 8 9 11 10 9 8 6 8 7 8 9 7 8 8 9 10
100 100 100 93 84 54 42 38 21 16 15 15 16 12 12 8 6 5 5 5 4 4 4 4 4 4 5 6 6 6 7 8 8 8 8 6 7 5 5 5 5 5 6 8 8
44 26 30 23 19 17 14 12 9 9 9 12 12 12 9 7 6 5 5 5 4 4 4 3 3 3 4 5 5 5 5 5 6 6 5 3 5 4 4 4 5 5 6 6 7
7 8 8 9 9 8 8 6 5 4 6 8 10 10 8 6 5 5 5 5 4 4 3 3 3 3 4 4 3 4 4 4 4 4 3 3 3 4 4 4 5 4 5 5 8
4 4 5 7 6 6 5 4 4 4 4 6 8 9 8 6 5 6 6 5 4 4 4 4 3 3 2 2 3 3 3 3 3 2 3 3 3 4 4 4 4 3 4 4 8
3 3 3 5 4 4 4 4 3 3 3 4 6 7 6 7 6 6 6 5 4 4 3 3 2 2 3 3 2 2 2 2 3 3 3 3 3 3 3 2 2 2 3 5 7
2 3 3 3 3 3 3 3 2 3 3 3 5 6 6 6 6 5 5 4 4 3 3 3 2 3 3 2 2 3 3 3 3 3 3 3 2 2 2 2 2 2 2 4 6
2 2 2 2 2 2 2 3 2 2 3 4 4 6 5 5 4 4 4 4 4 4 3 2 3 2 2 3 3 4 4 3 3 3 3 3 2 2 2 2 2 2 2 2 5
1 1 2 2 2 2 2 2 2 3 3 4 5 4 4 4 4 4 5 4 4 3 3 3 3 2 3 4 4 4 4 4 3 2 2 2 2 2 2 2 2 2 2 2 5
1 1 1 1 1 1 2 2 2 2 3 4 4 5 4 4 5 5 5 4 4 4 3 3 4 4 4 4 4 3 3 2 2 2 2 2 2 2 2 2 2 2 3 5 6
1 1 1 1 1 1 1 2 2 3 4 4 5 5 5 6 6 5 5 5 4 4 6 5 5 4 4 3 2 2 2 2 2 2 2 2 2 2 2 2 3 4 4 10 10
1 1 1 1 1 1 2 2 3 4 4 5 5 6 6 6 8 10 8 6 5 5 5 5 3 2 2 2 3 3 2 2 2 2 2 3 3 4 4 4 4 6 11 25 66
1 1 1 1 2 2 2 3 4 5 6 6 6 8 11 11 9 6 6 6 4 4 3 2 2 2 3 3 3 2 2 3 3 3 4 5 6 7 7 7 9 19 70 100 100
2 2 3 3 3 4 5 5 5 5 6 8 11 10 8 8 6 5 4 3 2 2 2 2 2 2 2 2 3 2 4 5 6 5 7 9 10 12 11 11 16 69 100 100 100
5 6 6 6 6 6 8 9 9 9 8 7 6 5 4 3 3 2 2 2 2 2 2 2 2 2 2 3 4 6 7 12 12 12 12 13 18 15 16 17 22 91 100 100 100
15 15 15 12 11 11 10 8 6 5 4 3 3 2 2 2 2 2 2 2 2 2 2 2 2 3 3 5 6 10 17 19 35 36 37 26 21 16 16 22 66 96 100 100 100
10 10 9 8 7 6 5 4 4 4 3 2 2 2 2 2 2 2 2 2 2 2 2 2 3 4 5 8 13 15 30 36 62 76 70 58 38 27 20 27 100 100 100 100 100
8 7 7 6 5 4 4 4 3 3 3 3 2 2 2 2 2 2 2 2 2 2 3 4 4 6 8 8 13 20 38 64 69 81 91 92 81 71 32 31 100 100 100 100 100
6 6 6 5 5 5 4 4 4 4 3 2 2 3 3 3 3 2 3 3 3 3 3 4 4 6 9 11 17 32 40 70 84 75 91 100 99 100 77 36 100 100 100 100 100
8 8 9 10 10 8 7 7 6 4 5 5 4 4 3 3 3 3 3 4 4 4 4 4 5 6 8 9 12 26 43 58 74 95 81 99 100 98 96 54 95 100 100 100 100
11 12 14 14 14 14 12 11 11 10 9 7 7 5 4 4 4 4 4 5 5 6 6 6 8 9 12 11 11 12 15 23 40 56 61 59 68 73 79 51 80 100 88 100 100
18 16 15 16 18 19 19 17 16 14 13 10 9 10 9 8 8 8 10 9 9 8 8 8 9 10 12 14 15 14 14 13 14 15 13 21 20 19 30 30 38 74 87 69 95
Wind_Speed
64 67 66 67 72 73 70 73 76 82 88 92 92 96 98 103 100 97 99 98 97 95 90 88 88 82 85 84 85 82 76 69 73 76 73 72 65 60 53 54 55 61 61 61 63
75 74 69 73 77 81 76 74 72 79 85 88 88 88 89 93 95 95 96 101 97 99 98 95 89 87 86 88 85 86 80 73 78 77 72 73 72 68 61 56 58 64 66 74 68
84 84 83 80 81 86 83 76 76 76 80 87 89 89 83 83 83 90 94 97 100 100 100 99 94 93 90 90 91 87 80 81 79 78 75 72 73 69 68 60 67 74 74 82 76
90 88 90 87 89 90 89 84 77 77 79 84 89 88 85 81 77 83 89 92 95 97 99 100 98 99 95 93 90 89 83 85 83 80 78 76 75 73 71 64 66 79 75 85 81
95 92 90 94 95 97 96 91 81 79 81 78 82 82 88 86 76 77 80 85 87 89 92 96 99 98 97 96 91 86 87 86 88 87 85 83 78 73 72 66 72 77 80 85 81
101 99 97 95 99 104 100 94 86 78 80 76 77 76 79 77 75 70 68 76 81 85 90 91 94 93 93 91 92 90 86 84 87 88 87 84 82 79 71 74 76 80 81 82 74
103 100 103 102 101 98 95 91 82 76 75 71 70 69 74 75 70 66 65 69 75 79 83 86 81 84 85 87 87 85 85 85 85 86 87 87 79 79 77 76 70 75 77 80 72
100 93 93 92 87 85 82 79 73 71 70 64 64 65 66 65 62 61 60 61 70 70 70 72 71 73 74 80 81 83 82 84 84 84 84 82 77 75 69 68 68 74 75 74 74
78 72 71 73 72 69 68 66 65 63 61 59 61 60 58 57 55 55 55 56 60 60 62 62 65 66 67 70 76 78 81 79 78 78 79 76 70 67 64 64 66 70 74 73 79
63 61 58 63 62 59 57 57 55 53 51 52 54 54 50 48 47 48 49 49 52 49 45 51 58 60 60 60 64 66 68 71 73 73 69 68 62 64 66 65 68 69 73 74 77
56 47 43 51 53 50 48 47 45 43 45 48 48 45 41 41 43 40 40 42 40 39 43 46 48 50 53 53 57 59 61 62 65 65 64 65 61 64 63 61 61 64 62 64 74
42 39 34 36 39 40 39 39 33 36 39 39 40 36 32 35 34 33 33 32 32 33 36 39 46 46 47 49 51 52 54 56 60 60 60 61 61 59 60 57 57 59 60 71 76
29 25 24 28 32 31 32 33 27 30 30 30 28 25 26 28 27 25 25 27 29 30 34 40 39 44 43 41 42 47 50 55 57 57 58 59 61 63 62 61 62 62 67 75 82
15 12 14 16 18 19 25 25 19 23 23 20 20 23 24 24 24 23 24 27 26 28 31 34 36 37 34 37 42 47 52 53 55 57 58 58 56 53 52 54 56 60 67 80 86
9 4 2 4 8 11 12 16 22 22 20 23 24 23 22 21 21 21 22 21 24 28 29 28 30 33 36 41 45 47 49 49 48 47 45 41 38 39 40 45 49 53 66 74 82
13 10 8 9 12 16 20 23 27 28 27 27 24 22 22 20 21 20 20 22 22 22 25 27 33 35 38 39 39 39 37 36 34 33 29 28 28 30 33 37 42 50 62 76 85
20 22 18 20 23 26 29 29 33 33 30 27 25 24 24 23 20 18 18 18 20 23 29 33 31 30 31 31 28 26 26 27 28 26 21 23 26 28 30 34 39 55 73 79 84
32 33 33 34 33 34 35 38 39 37 33 31 30 28 25 20 17 16 16 20 22 24 22 23 24 24 20 19 18 18 20 19 17 17 21 25 27 28 33 40 52 73 90 85 77
42 44 44 43 43 41 42 41 40 40 37 33 29 25 21 18 17 18 16 16 16 16 17 17 13 11 12 12 10 10 11 13 16 17 22 21 25 31 38 49 66 81 93 88 79
53 52 51 49 48 48 46 44 40 35 32 28 24 21 21 18 13 10 9 9 8 5 6 5 4 6 5 6 11 17 20 24 21 21 20 24 29 35 45 55 71 89 97 86 82
55 53 51 48 45 43 40 36 33 31 29 26 22 17 13 11 7 5 4 2 2 1 1 1 4 5 11 20 24 28 28 29 25 24 22 20 26 32 52 66 82 96 99 81 84
46 46 44 43 41 40 37 35 32 30 27 24 21 18 17 12 9 7 8 7 6 6 7 10 11 15 20 29 30 31 36 34 33 28 24 21 21 29 49 72 93 92 101 84 82
45 44 42 41 39 37 36 35 33 30 28 24 22 21 20 17 13 12 11 12 13 13 14 18 17 22 26 30 35 37 38 36 32 33 28 23 19 16 44 72 100 95 94 88 89
42 45 45 45 42 40 38 36 35 30 28 29 28 26 24 19 16 18 18 21 22 20 19 22 21 25 28 30 37 38 39 36 33 29 27 22 20 18 29 66 100 97 94 101 102
42 44 46 47 46 42 42 41 36 34 41 36 30 28 25 24 26 26 28 30 28 27 26 26 27 25 25 29 33 38 38 38 36 33 30 29 26 28 28 56 84 92 105 103 91
39 45 46 50 51 50 51 51 49 48 46 44 41 36 37 38 37 37 37 38 37 35 30 33 34 32 26 22 21 25 29 34 34 35 33 33 36 38 41 61 81 99 103 109 107
37 39 41 46 50 52 53 54 54 55 53 50 50 50 49 50 51 52 51 49 46 43 41 39 38 38 34 31 26 23 20 16 15 12 13 18 16 20 28 39 73 95 101 86 109
Wind_Direction
295 291 292 294 297 292 288 278 272 266 263 261 259 259 257 256 254 252 251 249 251 253 251 252 252 252 254 251 251 252 249 248 249 245 241 249 249 253 259 261 259 247 251 247 251
298 293 287 286 285 291 291 286 279 270 264 262 261 259 258 255 253 251 248 247 249 251 253 252 250 249 251 251 253 253 253 251 250 250 249 249 247 254 256 259 253 246 244 248 246
297 295 290 284 284 288 288 285 280 273 268 262 261 261 258 254 254 251 247 245 246 248 248 249 247 248 250 252 253 252 253 253 255 253 254 251 250 255 252 258 247 245 243 248 248
296 292 287 284 283 286 285 284 278 273 266 262 260 260 259 258 256 252 247 245 246 248 247 248 246 246 249 250 250 251 253 252 252 254 254 255 253 255 252 257 248 245 241 247 253
293 289 286 281 282 286 285 282 274 270 267 261 259 259 259 259 258 252 247 245 247 246 247 247 246 246 247 250 249 252 251 253 253 255 256 256 257 253 254 251 246 247 242 247 247
290 287 285 282 279 281 282 280 275 267 264 259 254 255 255 256 254 252 246 245 245 244 244 246 246 248 248 250 250 253 252 254 254 255 257 255 255 254 254 251 244 245 246 244 238
287 284 282 280 279 278 277 276 272 266 261 258 253 251 250 252 251 249 245 242 243 243 244 246 248 247 248 251 251 251 254 253 252 255 257 254 258 256 248 248 247 250 246 241 232
282 280 278 277 274 273 272 270 266 261 260 255 250 247 248 251 250 246 242 241 242 243 245 245 246 247 248 249 251 250 251 254 254 255 255 256 255 255 252 249 243 246 240 236 227
285 282 277 274 272 269 267 264 260 258 257 253 250 246 247 248 246 243 239 241 241 244 244 245 244 242 243 246 250 250 251 253 255 255 255 256 253 253 250 243 237 240 234 232 222
287 279 270 266 264 262 260 258 257 254 251 248 247 246 247 244 240 240 239 239 241 243 245 244 241 244 245 248 246 248 251 251 252 254 255 258 253 250 248 243 238 236 231 228 223
287 285 271 258 258 256 254 254 253 249 243 240 238 241 241 239 235 236 238 240 241 236 236 239 242 243 243 243 246 249 248 249 252 255 256 255 255 254 252 245 237 233 227 222 220
290 284 271 255 251 248 249 252 245 242 235 234 234 236 238 235 233 232 234 232 234 233 235 235 235 239 242 243 243 246 249 250 253 254 257 258 258 257 256 252 243 236 226 219 217
295 289 271 249 243 239 237 239 227 227 229 228 230 229 228 226 218 209 212 222 224 226 230 233 236 241 242 244 248 249 251 251 255 258 259 260 259 257 255 251 243 232 221 214 209
317 298 264 252 240 230 224 222 210 209 211 209 208 207 203 193 199 201 211 214 217 224 231 236 237 243 245 246 248 250 253 257 259 260 259 259 259 256 250 243 236 225 213 207 203
350 324 271 227 202 197 189 175 181 177 172 183 185 183 181 187 190 201 202 208 214 224 230 240 246 246 247 249 252 255 259 261 263 263 261 255 246 236 229 225 219 208 202 197 197
34 58 84 116 129 148 156 158 154 155 162 165 164 167 163 172 180 183 196 204 215 227 238 243 245 250 256 260 263 264 263 263 261 255 247 236 222 210 207 204 199 195 193 186 188
67 78 91 108 119 126 133 139 143 142 143 144 147 152 149 157 160 178 197 211 220 227 235 245 257 260 263 264 261 259 257 253 250 243 219 201 193 187 183 185 184 181 175 177 181
81 89 97 102 112 118 125 129 129 132 132 131 134 137 140 150 170 188 204 219 230 243 251 258 262 260 260 259 258 253 248 239 223 203 174 175 170 169 164 166 167 165 167 164 175
87 92 96 103 107 113 119 119 116 116 119 123 127 137 148 164 184 200 216 233 243 253 258 261 270 271 253 250 233 216 184 168 176 166 151 156 160 156 158 162 161 165 171 173 179
80 86 92 96 99 99 100 103 107 112 116 120 128 142 153 170 179 200 219 245 253 251 262 281 262 250 228 187 159 145 147 137 131 126 135 143 159 161 157 161 165 167 173 180 187
76 81 84 88 92 96 99 102 105 106 108 114 119 123 127 134 133 182 199 106 59 60 131 158 169 172 149 142 142 137 133 124 123 118 123 124 157 163 162 162 166 170 176 180 189
75 79 81 86 88 90 94 94 97 97 99 102 104 105 100 102 90 76 65 80 102 113 126 124 135 141 143 136 133 132 123 122 116 107 118 130 146 174 169 167 169 175 180 184 190
68 72 75 78 81 85 88 88 89 91 94 96 99 96 86 75 78 75 90 96 103 112 118 118 134 130 130 135 132 127 124 123 116 113 112 118 137 136 174 174 173 178 187 190 196
63 70 72 74 76 77 80 84 86 90 96 93 87 86 84 83 89 94 96 98 96 103 110 120 124 124 126 132 132 126 126 122 124 127 124 132 137 161 177 182 181 188 192 193 201
66 69 70 70 70 74 78 80 85 85 80 82 86 88 92 98 93 96 95 95 96 99 101 107 109 116 129 135 137 134 135 137 136 136 147 152 160 166 175 190 190 193 195 201 201
67 72 74 76 76 75 78 79 81 84 88 90 87 88 90 90 89 88 90 92 94 94 96 102 103 105 109 115 130 141 147 152 152 156 161 166 172 177 179 188 193 195 201 206 204
62 75 79 82 82 82 82 83 84 85 84 86 90 88 89 89 88 87 87 86 88 90 91 92 98 100 97 95 96 101 104 104 113 141 168 180 193 198 196 197 195 201 206 211 212